Maria — SV7156 — position and weather

sailwx.info

Track history (hours):
 
Tides and Currents Weather Stations Pressure Air Temp Water Temp Dewpoint Dewpoint Depression Visibility Wind Speed Wind Dir Waves Ship Positions

Maria

Last reported at 2014-Oct-30 13:33 UTC. Time now 2014-Oct-30 14:27 UTC.
Position N 37°57' E 023°36'.

Length 74 m; draft 4.5 m.

Type: Ship. MMSI: 237493000.

Date/timePositionNaut miles runAvg speedWind from/ knotsBaromVisibWave heightAir tempDewpointWater temp
2014-Oct-30 13:33N 37°57' E 023°36'2 1.5
2014-Oct-30 12:33N 37°56' E 023°38'0 0.0
2014-Oct-30 11:33N 37°56' E 023°38'0 0.0
2014-Oct-30 10:33N 37°56' E 023°38'3 3.0
2014-Oct-30 09:34N 37°58' E 023°35'0 0.0
2014-Oct-30 08:34N 37°58' E 023°35'4 4.0
2014-Oct-30 07:34N 38°02' E 023°35'0 0.2
2014-Oct-30 06:34N 38°02' E 023°36'0 0.0
2014-Oct-30 05:33N 38°02' E 023°36'0 0.0
2014-Oct-30 04:33N 38°02' E 023°36'0 0.0
2014-Oct-30 03:34N 38°02' E 023°36'1 0.7
2014-Oct-30 02:34N 38°01' E 023°35'0 0.2
2014-Oct-30 01:33N 38°01' E 023°35'0 0.0
2014-Oct-30 00:33N 38°01' E 023°35'0 0.0
2014-Oct-29 23:34N 38°01' E 023°35'0 0.0
2014-Oct-29 22:34N 38°01' E 023°35'0 0.0
2014-Oct-29 21:34N 38°01' E 023°35'0 0.0
2014-Oct-29 20:34N 38°01' E 023°35'0 0.0
2014-Oct-29 19:34N 38°01' E 023°35'0 0.0
2014-Oct-29 18:33N 38°01' E 023°35'0 0.0
2014-Oct-29 17:33N 38°01' E 023°35'2 1.5
2014-Oct-29 16:34N 38°00' E 023°34'3 2.9
2014-Oct-29 15:33N 37°58' E 023°35'3 2.8
2014-Oct-29 14:34N 37°55' E 023°34'2 2.2
2014-Oct-29 13:34N 37°53' E 023°32'0 0.0
2014-Oct-29 12:34N 37°53' E 023°33'0 0.0
2014-Oct-29 11:34N 37°53' E 023°33'0 0.0
2014-Oct-29 10:34N 37°53' E 023°33'0 0.0
2014-Oct-29 09:34N 37°53' E 023°33'0 0.0
2014-Oct-29 08:34N 37°53' E 023°32'0 0.0
2014-Oct-29 07:34N 37°53' E 023°32'5 4.9
2014-Oct-29 06:34N 37°58' E 023°35'1 0.0
2014-Oct-28 05:34N 37°57' E 023°34'4 3.8
2014-Oct-28 04:34N 38°01' E 023°34'0 0.1
2014-Oct-28 03:31N 38°01' E 023°34'1 1.3
2014-Oct-28 02:33N 38°02' E 023°36'0 0.1
2014-Oct-28 01:34N 38°02' E 023°36'0 0.0
2014-Oct-28 00:34N 38°02' E 023°36'0 0.0
2014-Oct-27 23:32N 38°02' E 023°36'1 0.7
2014-Oct-27 22:34N 38°02' E 023°35'0 0.0
2014-Oct-27 21:34N 38°02' E 023°35'0 0.0
2014-Oct-27 20:34N 38°02' E 023°35'0 0.0
2014-Oct-27 19:34N 38°02' E 023°35'0 0.0
2014-Oct-27 18:34N 38°02' E 023°35'0 0.0
2014-Oct-27 17:33N 38°02' E 023°35'0 0.0
2014-Oct-27 16:34N 38°02' E 023°35'0 0.0
2014-Oct-27 15:34N 38°02' E 023°35'0 0.0
2014-Oct-27 14:33N 38°02' E 023°35'0 0.0
2014-Oct-27 13:34N 38°02' E 023°35'0 0.0
2014-Oct-27 12:33N 38°02' E 023°35'0 0.0
2014-Oct-27 11:34N 38°02' E 023°35'0 0.0
2014-Oct-27 10:33N 38°02' E 023°35'3 3.5
2014-Oct-27 09:34N 37°58' E 023°33'2 1.6
2014-Oct-27 08:34N 37°58' E 023°35'0 0.0
2014-Oct-26 23:30N 37°58' E 023°35'1 1.0
2014-Oct-26 22:34N 37°57' E 023°36'0 0.0
2014-Oct-26 21:33N 37°57' E 023°36'0 0.0
2014-Oct-26 20:34N 37°57' E 023°36'0 0.0
2014-Oct-26 19:33N 37°57' E 023°36'0 0.0
2014-Oct-26 18:33N 37°57' E 023°36'2 2.3
2014-Oct-26 17:33N 37°55' E 023°34'0 0.0
2014-Oct-26 16:33N 37°55' E 023°34'0 0.0
2014-Oct-26 15:33N 37°55' E 023°34'0 0.0
2014-Oct-26 14:33N 37°55' E 023°34'0 0.0
2014-Oct-26 13:34N 37°55' E 023°34'2 0.1
2014-Oct-25 14:16N 37°58' E 023°35'4 6.1
2014-Oct-25 13:33N 37°53' E 023°33'2 2.2
2014-Oct-25 12:33N 37°51' E 023°32'0 0.0
2014-Oct-25 11:33N 37°51' E 023°32'0 0.0
2014-Oct-25 10:33N 37°51' E 023°32'1 1.1
2014-Oct-25 09:33N 37°52' E 023°33'1 0.9
2014-Oct-25 08:33N 37°53' E 023°33'0 0.1
2014-Oct-25 07:33N 37°53' E 023°33'0 0.0
2014-Oct-25 06:33N 37°53' E 023°33'5 4.5
2014-Oct-25 05:33N 37°58' E 023°35'0 0.0
2014-Oct-25 04:33N 37°58' E 023°35'0 0.0
2014-Oct-25 03:33N 37°58' E 023°35'0 0.0
2014-Oct-25 02:33N 37°58' E 023°35'0 0.0
2014-Oct-25 01:33N 37°58' E 023°35'0 0.0
2014-Oct-25 00:33N 37°58' E 023°35'0 0.0
2014-Oct-24 23:33N 37°58' E 023°35'0 0.0
2014-Oct-24 22:33N 37°58' E 023°35'0 0.0
2014-Oct-24 21:33N 37°58' E 023°35'0 0.0
2014-Oct-24 20:33N 37°58' E 023°35'0 0.0
2014-Oct-24 19:33N 37°58' E 023°35'0 0.0
2014-Oct-24 18:33N 37°58' E 023°35'0 0.0
2014-Oct-24 17:33N 37°58' E 023°35'0 0.0
2014-Oct-24 16:33N 37°58' E 023°35'0 0.0
2014-Oct-24 15:33N 37°58' E 023°35'0 0.0
2014-Oct-24 14:33N 37°58' E 023°35'1 1.4
2014-Oct-24 13:33N 37°58' E 023°33'4 1.8
2014-Oct-24 11:31N 38°02' E 023°32'0 0.1
2014-Oct-24 10:33N 38°01' E 023°32'0 0.1
2014-Oct-24 09:32N 38°02' E 023°32'4 4.2
2014-Oct-24 08:33N 37°58' E 023°33'1 0.1
2014-Oct-23 21:13N 37°58' E 023°35'1 1.4
2014-Oct-23 20:33N 37°57' E 023°36'0 0.0
2014-Oct-23 19:33N 37°57' E 023°36'0 0.0
2014-Oct-23 18:33N 37°57' E 023°36'0 0.0
2014-Oct-23 17:33N 37°57' E 023°36'4 3.9
2014-Oct-23 16:33N 37°54' E 023°33'0 0.0
2014-Oct-23 15:33N 37°54' E 023°33'0 0.0
2014-Oct-23 14:33N 37°54' E 023°33'0 0.0
2014-Oct-23 13:33N 37°54' E 023°33'0 0.1
2014-Oct-23 12:33N 37°54' E 023°33'0 0.0
2014-Oct-23 11:33N 37°54' E 023°33'0 0.0
2014-Oct-23 10:33N 37°54' E 023°33'4 3.5
2014-Oct-23 09:33N 37°57' E 023°35'0 0.0
2014-Oct-22 18:09N 37°58' E 023°35'2 3.5
2014-Oct-22 17:34N 37°59' E 023°33'3 3.1
2014-Oct-22 16:28N 38°02' E 023°36'0 0.0
2014-Oct-22 15:33N 38°02' E 023°36'0 0.0
2014-Oct-22 14:33N 38°02' E 023°36'0 0.0
2014-Oct-22 13:31N 38°02' E 023°36'0 0.0
2014-Oct-22 12:34N 38°02' E 023°36'0 0.0
2014-Oct-22 11:33N 38°02' E 023°36'0 0.0
2014-Oct-22 10:33N 38°02' E 023°36'0 0.0
2014-Oct-22 09:33N 38°02' E 023°36'1 0.7
2014-Oct-22 08:33N 38°02' E 023°35'0 0.0
2014-Oct-22 07:33N 38°02' E 023°35'0 0.0
2014-Oct-22 06:33N 38°01' E 023°35'4 0.3
2014-Oct-21 17:05N 37°58' E 023°35'1 1.8
2014-Oct-21 16:33N 37°57' E 023°36'0 0.0
2014-Oct-21 15:33N 37°57' E 023°36'0 0.0
2014-Oct-21 14:33N 37°57' E 023°36'3 3.0
2014-Oct-21 13:33N 37°55' E 023°33'0 0.0
2014-Oct-21 12:33N 37°55' E 023°33'0 0.0
2014-Oct-21 11:33N 37°55' E 023°33'0 0.0
2014-Oct-21 10:33N 37°55' E 023°33'0 0.0
2014-Oct-21 09:33N 37°55' E 023°33'0 0.0
2014-Oct-21 08:33N 37°55' E 023°33'0 0.1
2014-Oct-21 07:33N 37°55' E 023°33'2 1.7
2014-Oct-21 06:33N 37°56' E 023°35'1 0.2
2014-Oct-20 23:18N 37°58' E 023°35'4 5.8
2014-Oct-20 22:33N 37°53' E 023°33'2 1.7
2014-Oct-20 21:33N 37°52' E 023°32'0 0.0
2014-Oct-20 20:33N 37°52' E 023°32'0 0.0
2014-Oct-20 19:33N 37°52' E 023°32'5 5.2
2014-Oct-20 18:33N 37°57' E 023°35'1 1.0
2014-Oct-20 17:33N 37°58' E 023°35'0 0.0
2014-Oct-20 16:33N 37°58' E 023°35'0 0.0
2014-Oct-20 15:33N 37°58' E 023°35'4 4.0
2014-Oct-20 14:33N 38°02' E 023°35'  
Track history (hours):
 
Tides and Currents Weather Stations Pressure Air Temp Water Temp Dewpoint Dewpoint Depression Visibility Wind Speed Wind Dir Waves Ship Positions

Maria

Last reported at 2014-Oct-30 13:33 UTC. Time now 2014-Oct-30 14:27 UTC.
Position N 37°57' E 023°36'.

Length 74 m; draft 4.5 m.

Type: Ship. MMSI: 237493000.

Date/timePositionNaut miles runAvg speedWind from/ knotsBaromVisibWave heightAir tempDewpointWater temp
2014-Oct-30 13:33N 37°57' E 023°36'2 1.5
2014-Oct-30 12:33N 37°56' E 023°38'0 0.0
2014-Oct-30 11:33N 37°56' E 023°38'0 0.0
2014-Oct-30 10:33N 37°56' E 023°38'3 3.0
2014-Oct-30 09:34N 37°58' E 023°35'0 0.0
2014-Oct-30 08:34N 37°58' E 023°35'4 4.0
2014-Oct-30 07:34N 38°02' E 023°35'0 0.2
2014-Oct-30 06:34N 38°02' E 023°36'0 0.0
2014-Oct-30 05:33N 38°02' E 023°36'0 0.0
2014-Oct-30 04:33N 38°02' E 023°36'0 0.0
2014-Oct-30 03:34N 38°02' E 023°36'1 0.7
2014-Oct-30 02:34N 38°01' E 023°35'0 0.2
2014-Oct-30 01:33N 38°01' E 023°35'0 0.0
2014-Oct-30 00:33N 38°01' E 023°35'0 0.0
2014-Oct-29 23:34N 38°01' E 023°35'0 0.0
2014-Oct-29 22:34N 38°01' E 023°35'0 0.0
2014-Oct-29 21:34N 38°01' E 023°35'0 0.0
2014-Oct-29 20:34N 38°01' E 023°35'0 0.0
2014-Oct-29 19:34N 38°01' E 023°35'0 0.0
2014-Oct-29 18:33N 38°01' E 023°35'0 0.0
2014-Oct-29 17:33N 38°01' E 023°35'2 1.5
2014-Oct-29 16:34N 38°00' E 023°34'3 2.9
2014-Oct-29 15:33N 37°58' E 023°35'3 2.8
2014-Oct-29 14:34N 37°55' E 023°34'2 2.2
2014-Oct-29 13:34N 37°53' E 023°32'0 0.0
2014-Oct-29 12:34N 37°53' E 023°33'0 0.0
2014-Oct-29 11:34N 37°53' E 023°33'0 0.0
2014-Oct-29 10:34N 37°53' E 023°33'0 0.0
2014-Oct-29 09:34N 37°53' E 023°33'0 0.0
2014-Oct-29 08:34N 37°53' E 023°32'0 0.0
2014-Oct-29 07:34N 37°53' E 023°32'5 4.9
2014-Oct-29 06:34N 37°58' E 023°35'1 0.0
2014-Oct-28 05:34N 37°57' E 023°34'4 3.8
2014-Oct-28 04:34N 38°01' E 023°34'0 0.1
2014-Oct-28 03:31N 38°01' E 023°34'1 1.3
2014-Oct-28 02:33N 38°02' E 023°36'0 0.1
2014-Oct-28 01:34N 38°02' E 023°36'0 0.0
2014-Oct-28 00:34N 38°02' E 023°36'0 0.0
2014-Oct-27 23:32N 38°02' E 023°36'1 0.7
2014-Oct-27 22:34N 38°02' E 023°35'0 0.0
2014-Oct-27 21:34N 38°02' E 023°35'0 0.0
2014-Oct-27 20:34N 38°02' E 023°35'0 0.0
2014-Oct-27 19:34N 38°02' E 023°35'0 0.0
2014-Oct-27 18:34N 38°02' E 023°35'0 0.0
2014-Oct-27 17:33N 38°02' E 023°35'0 0.0
2014-Oct-27 16:34N 38°02' E 023°35'0 0.0
2014-Oct-27 15:34N 38°02' E 023°35'0 0.0
2014-Oct-27 14:33N 38°02' E 023°35'0 0.0
2014-Oct-27 13:34N 38°02' E 023°35'0 0.0
2014-Oct-27 12:33N 38°02' E 023°35'0 0.0
2014-Oct-27 11:34N 38°02' E 023°35'0 0.0
2014-Oct-27 10:33N 38°02' E 023°35'3 3.5
2014-Oct-27 09:34N 37°58' E 023°33'2 1.6
2014-Oct-27 08:34N 37°58' E 023°35'0 0.0
2014-Oct-26 23:30N 37°58' E 023°35'1 1.0
2014-Oct-26 22:34N 37°57' E 023°36'0 0.0
2014-Oct-26 21:33N 37°57' E 023°36'0 0.0
2014-Oct-26 20:34N 37°57' E 023°36'0 0.0
2014-Oct-26 19:33N 37°57' E 023°36'0 0.0
2014-Oct-26 18:33N 37°57' E 023°36'2 2.3
2014-Oct-26 17:33N 37°55' E 023°34'0 0.0
2014-Oct-26 16:33N 37°55' E 023°34'0 0.0
2014-Oct-26 15:33N 37°55' E 023°34'0 0.0
2014-Oct-26 14:33N 37°55' E 023°34'0 0.0
2014-Oct-26 13:34N 37°55' E 023°34'2 0.1
2014-Oct-25 14:16N 37°58' E 023°35'4 6.1
2014-Oct-25 13:33N 37°53' E 023°33'2 2.2
2014-Oct-25 12:33N 37°51' E 023°32'0 0.0
2014-Oct-25 11:33N 37°51' E 023°32'0 0.0
2014-Oct-25 10:33N 37°51' E 023°32'1 1.1
2014-Oct-25 09:33N 37°52' E 023°33'1 0.9
2014-Oct-25 08:33N 37°53' E 023°33'0 0.1
2014-Oct-25 07:33N 37°53' E 023°33'0 0.0
2014-Oct-25 06:33N 37°53' E 023°33'5 4.5
2014-Oct-25 05:33N 37°58' E 023°35'0 0.0
2014-Oct-25 04:33N 37°58' E 023°35'0 0.0
2014-Oct-25 03:33N 37°58' E 023°35'0 0.0
2014-Oct-25 02:33N 37°58' E 023°35'0 0.0
2014-Oct-25 01:33N 37°58' E 023°35'0 0.0
2014-Oct-25 00:33N 37°58' E 023°35'0 0.0
2014-Oct-24 23:33N 37°58' E 023°35'0 0.0
2014-Oct-24 22:33N 37°58' E 023°35'0 0.0
2014-Oct-24 21:33N 37°58' E 023°35'0 0.0
2014-Oct-24 20:33N 37°58' E 023°35'0 0.0
2014-Oct-24 19:33N 37°58' E 023°35'0 0.0
2014-Oct-24 18:33N 37°58' E 023°35'0 0.0
2014-Oct-24 17:33N 37°58' E 023°35'0 0.0
2014-Oct-24 16:33N 37°58' E 023°35'0 0.0
2014-Oct-24 15:33N 37°58' E 023°35'0 0.0
2014-Oct-24 14:33N 37°58' E 023°35'1 1.4
2014-Oct-24 13:33N 37°58' E 023°33'4 1.8
2014-Oct-24 11:31N 38°02' E 023°32'0 0.1
2014-Oct-24 10:33N 38°01' E 023°32'0 0.1
2014-Oct-24 09:32N 38°02' E 023°32'4 4.2
2014-Oct-24 08:33N 37°58' E 023°33'1 0.1
2014-Oct-23 21:13N 37°58' E 023°35'1 1.4
2014-Oct-23 20:33N 37°57' E 023°36'0 0.0
2014-Oct-23 19:33N 37°57' E 023°36'0 0.0
2014-Oct-23 18:33N 37°57' E 023°36'0 0.0
2014-Oct-23 17:33N 37°57' E 023°36'4 3.9
2014-Oct-23 16:33N 37°54' E 023°33'0 0.0
2014-Oct-23 15:33N 37°54' E 023°33'0 0.0
2014-Oct-23 14:33N 37°54' E 023°33'0 0.0
2014-Oct-23 13:33N 37°54' E 023°33'0 0.1
2014-Oct-23 12:33N 37°54' E 023°33'0 0.0
2014-Oct-23 11:33N 37°54' E 023°33'0 0.0
2014-Oct-23 10:33N 37°54' E 023°33'4 3.5
2014-Oct-23 09:33N 37°57' E 023°35'0 0.0
2014-Oct-22 18:09N 37°58' E 023°35'2 3.5
2014-Oct-22 17:34N 37°59' E 023°33'3 3.1
2014-Oct-22 16:28N 38°02' E 023°36'0 0.0
2014-Oct-22 15:33N 38°02' E 023°36'0 0.0
2014-Oct-22 14:33N 38°02' E 023°36'0 0.0
2014-Oct-22 13:31N 38°02' E 023°36'0 0.0
2014-Oct-22 12:34N 38°02' E 023°36'0 0.0
2014-Oct-22 11:33N 38°02' E 023°36'0 0.0
2014-Oct-22 10:33N 38°02' E 023°36'0 0.0
2014-Oct-22 09:33N 38°02' E 023°36'1 0.7
2014-Oct-22 08:33N 38°02' E 023°35'0 0.0
2014-Oct-22 07:33N 38°02' E 023°35'0 0.0
2014-Oct-22 06:33N 38°01' E 023°35'4 0.3
2014-Oct-21 17:05N 37°58' E 023°35'1 1.8
2014-Oct-21 16:33N 37°57' E 023°36'0 0.0
2014-Oct-21 15:33N 37°57' E 023°36'0 0.0
2014-Oct-21 14:33N 37°57' E 023°36'3 3.0
2014-Oct-21 13:33N 37°55' E 023°33'0 0.0
2014-Oct-21 12:33N 37°55' E 023°33'0 0.0
2014-Oct-21 11:33N 37°55' E 023°33'0 0.0
2014-Oct-21 10:33N 37°55' E 023°33'0 0.0
2014-Oct-21 09:33N 37°55' E 023°33'0 0.0
2014-Oct-21 08:33N 37°55' E 023°33'0 0.1
2014-Oct-21 07:33N 37°55' E 023°33'2 1.7
2014-Oct-21 06:33N 37°56' E 023°35'1 0.2
2014-Oct-20 23:18N 37°58' E 023°35'4 5.8
2014-Oct-20 22:33N 37°53' E 023°33'2 1.7
2014-Oct-20 21:33N 37°52' E 023°32'0 0.0
2014-Oct-20 20:33N 37°52' E 023°32'0 0.0
2014-Oct-20 19:33N 37°52' E 023°32'5 5.2
2014-Oct-20 18:33N 37°57' E 023°35'1 1.0
2014-Oct-20 17:33N 37°58' E 023°35'0 0.0
2014-Oct-20 16:33N 37°58' E 023°35'0 0.0
2014-Oct-20 15:33N 37°58' E 023°35'4 4.0
2014-Oct-20 14:33N 38°02' E 023°35'  

Dump ship's entire track history